�N����,����,�~����,�C��,���x,�C��,����,���ϕ���,�ő�u�ԕ���,�ő厞����,���˗�,�I�_���x,�n�����x,�ő啗���N��,DTYPE
"17/08/29","00:10",0.0,26.0,86.7,1004.8,320.4,0.7,1.1,324.0,0.00,23.6,26.9,"00:07:28",1
"17/08/29","00:20",0.0,26.0,87.0,1004.5,322.0,0.6,1.1,263.7,0.00,23.7,26.9,"00:10:24",1
"17/08/29","00:30",0.0,25.9,87.3,1005.0,317.9,0.5,0.6,320.2,0.00,23.7,26.8,"00:20:40",1
"17/08/29","00:40",0.0,25.7,87.8,1004.5,296.5,0.6,0.9,298.4,0.00,23.6,26.6,"00:34:56",1
"17/08/29","00:50",0.0,25.7,88.3,1004.5,304.2,0.6,1.3,332.0,0.00,23.7,26.7,"00:43:04",1
"17/08/29","01:00",0.0,25.7,88.4,1004.3,301.4,0.5,0.8,336.0,0.00,23.7,26.8,"00:59:04",1
"17/08/29","01:10",0.0,25.7,88.7,1004.5,319.4,0.6,0.9,338.2,0.00,23.7,26.7,"01:01:20",1
"17/08/29","01:20",0.0,25.7,89.0,1004.5,326.1,0.7,1.0,323.0,0.00,23.8,26.8,"01:13:44",1
"17/08/29","01:30",0.0,25.7,88.8,1005.0,278.2,0.5,0.6,269.2,0.00,23.8,26.8,"01:21:52",1
"17/08/29","01:40",0.0,25.7,88.6,1004.3,291.5,0.6,1.0,314.5,0.00,23.7,26.7,"01:37:36",1
"17/08/29","01:50",0.0,25.8,88.3,1004.5,314.7,0.5,1.1,328.4,0.00,23.8,26.6,"01:48:56",1
"17/08/29","02:00",0.0,25.8,88.7,1004.5,321.8,0.7,1.1,319.6,0.00,23.8,26.7,"01:50:16",1
"17/08/29","02:10",0.0,25.7,88.8,1004.5,324.5,0.5,0.9,328.7,0.00,23.8,26.6,"02:00:08",1
"17/08/29","02:20",0.0,25.6,88.8,1004.8,288.0,0.6,0.8,326.7,0.00,23.7,26.5,"02:10:08",1
"17/08/29","02:30",0.0,25.6,89.1,1004.1,301.7,0.3,0.6,311.3,0.00,23.7,26.4,"02:20:24",1
"17/08/29","02:40",0.0,25.6,89.1,1003.8,318.4,0.6,0.9,339.8,0.00,23.7,26.7,"02:34:40",1
"17/08/29","02:50",0.0,25.5,89.3,1004.3,320.3,0.5,0.9,345.7,0.00,23.6,26.8,"02:44:00",1
"17/08/29","03:00",0.0,25.5,89.3,1004.3,311.1,0.7,1.4,327.2,0.00,23.6,26.6,"02:54:48",1
"17/08/29","03:10",0.0,25.6,89.3,1004.3,295.3,0.2,0.5,313.7,0.00,23.7,26.6,"03:00:40",1
"17/08/29","03:20",0.0,25.5,89.5,1004.1,324.3,0.8,1.2,338.0,0.00,23.7,26.6,"03:10:16",1
"17/08/29","03:30",0.0,25.5,89.5,1004.1,284.0,0.5,0.9,328.7,0.00,23.7,26.5,"03:27:36",1
"17/08/29","03:40",0.0,25.5,89.4,1004.1,324.6,0.6,1.0,299.2,0.00,23.7,26.4,"03:32:40",1
"17/08/29","03:50",0.0,25.5,89.8,1004.1,339.4,0.7,1.0,342.3,0.00,23.7,26.5,"03:40:40",1
"17/08/29","04:00",0.0,25.5,90.1,1004.3,324.1,0.5,1.2,333.8,0.00,23.8,26.4,"03:50:08",1
"17/08/29","04:10",0.0,25.5,90.5,1004.3,290.5,0.3,0.6,310.3,0.00,23.9,26.3,"04:04:16",1
"17/08/29","04:20",0.0,25.4,90.5,1004.5,313.8,0.3,1.0,342.7,0.00,23.8,26.2,"04:19:52",1
"17/08/29","04:30",0.0,25.3,90.6,1004.3,321.7,0.5,1.1,357.2,0.00,23.7,26.2,"04:29:20",1
"17/08/29","04:40",0.0,25.2,90.7,1004.5,315.3,0.6,1.3,346.3,0.00,23.6,26.3,"04:31:52",1
"17/08/29","04:50",0.0,25.0,90.7,1004.5,305.1,0.3,0.8,346.4,0.00,23.4,26.2,"04:44:24",1
"17/08/29","05:00",0.0,24.8,91.0,1004.8,313.1,0.2,0.5,335.5,0.00,23.3,26.1,"04:50:56",1
"17/08/29","05:10",0.0,24.6,91.6,1004.5,336.7,0.7,1.3,338.5,0.00,23.2,26.1,"05:06:08",1
"17/08/29","05:20",0.0,24.5,91.9,1005.0,313.9,0.5,1.1,340.4,0.00,23.1,26.1,"05:19:44",1
"17/08/29","05:30",0.0,24.5,92.4,1005.0,334.4,0.8,1.1,340.3,0.00,23.2,26.1,"05:24:16",1
"17/08/29","05:40",0.0,24.4,92.5,1005.2,319.2,0.3,0.9,305.7,0.00,23.1,26.0,"05:38:40",1
"17/08/29","05:50",0.0,24.4,92.8,1005.2,317.4,0.6,1.0,344.9,0.00,23.2,25.9,"05:45:28",1
"17/08/29","06:00",0.0,24.4,92.9,1005.0,305.3,0.1,0.6,313.8,0.00,23.2,26.2,"05:50:40",1
"17/08/29","06:10",0.0,24.6,93.2,1005.0,281.4,0.5,0.9,329.3,0.00,23.5,26.1,"06:06:40",1
"17/08/29","06:20",0.0,24.8,93.2,1004.8,303.4,0.3,0.6,319.6,0.01,23.7,26.0,"06:18:40",1
"17/08/29","06:30",0.0,25.1,93.5,1005.0,329.6,0.7,1.0,336.5,0.03,24.0,26.1,"06:23:36",1
"17/08/29","06:40",0.0,25.5,92.8,1005.0,329.7,0.8,1.3,343.6,0.04,24.3,26.0,"06:36:56",1
"17/08/29","06:50",0.0,25.8,92.5,1005.2,312.4,0.6,1.0,333.5,0.04,24.5,26.3,"06:40:24",1
"17/08/29","07:00",0.0,26.1,91.1,1005.0,264.3,0.0,0.4,242.5,0.05,24.6,26.1,"06:50:08",1
"17/08/29","07:10",0.0,27.1,87.0,1004.8,230.9,0.0,0.4,225.3,0.07,24.8,26.4,"07:01:36",1
"17/08/29","07:20",0.0,27.3,85.1,1004.8,259.2,0.2,0.8,234.9,0.07,24.6,26.5,"07:19:20",1
"17/08/29","07:30",0.0,27.5,84.7,1005.0,204.4,0.3,1.0,191.2,0.05,24.7,26.3,"07:27:20",1
"17/08/29","07:40",0.0,27.7,84.4,1004.8,176.5,0.2,0.8,203.5,0.10,24.9,26.4,"07:30:08",1
"17/08/29","07:50",0.0,28.3,82.2,1004.8,286.5,0.5,1.6,348.7,0.16,25.0,26.6,"07:49:12",1
"17/08/29","08:00",0.0,29.3,78.0,1004.5,0.2,0.6,1.6,342.4,0.21,25.1,26.7,"07:52:08",1
"17/08/29","08:10",0.0,29.3,78.9,1004.8,318.9,0.6,1.7,3.6,0.21,25.3,26.9,"08:03:36",1
"17/08/29","08:20",0.0,30.0,75.5,1004.5,135.8,0.8,2.1,164.3,0.25,25.2,27.0,"08:19:52",1
"17/08/29","08:30",0.0,30.0,77.0,1005.2,149.7,1.1,2.9,195.9,0.23,25.6,27.2,"08:22:56",1
"17/08/29","08:40",0.0,30.6,73.7,1005.5,123.1,0.7,2.4,205.2,0.28,25.4,27.3,"08:39:28",1
"17/08/29","08:50",0.0,30.3,73.3,1005.7,140.6,0.8,2.2,120.5,0.25,25.0,27.7,"08:47:52",1
"17/08/29","09:00",0.0,30.9,73.0,1005.5,132.7,1.0,1.9,117.2,0.31,25.5,27.7,"08:59:20",1
"17/08/29","09:10",0.0,31.9,70.1,1006.0,130.7,0.8,2.0,147.6,0.41,25.8,28.1,"09:02:40",1
"17/08/29","09:20",0.0,31.1,70.1,1006.2,192.8,1.1,2.7,226.1,0.33,25.0,28.2,"09:14:32",1
"17/08/29","09:30",0.0,29.8,75.3,1006.0,277.1,0.6,2.0,356.3,0.09,25.0,28.1,"09:23:44",1
"17/08/29","09:40",0.0,30.7,71.6,1005.7,13.2,0.8,2.1,2.9,0.25,25.0,28.3,"09:30:02",1
"17/08/29","09:50",0.0,31.7,70.2,1005.5,45.7,0.8,1.9,104.9,0.31,25.6,28.4,"09:42:48",1
"17/08/29","10:00",0.0,32.5,67.4,1005.7,84.5,0.8,2.2,16.8,0.42,25.7,28.6,"09:55:12",1
"17/08/29","10:10",0.0,32.6,64.4,1005.7,24.4,1.0,2.5,216.0,0.42,25.0,28.7,"10:09:20",1
"17/08/29","10:20",0.0,33.1,64.8,1006.7,99.8,1.1,2.8,213.3,0.49,25.6,28.9,"10:10:08",1
"17/08/29","10:30",0.0,32.8,61.6,1006.4,348.9,1.0,2.6,337.3,0.35,24.5,29.2,"10:29:44",1
"17/08/29","10:40",0.0,32.9,60.3,1006.0,350.7,1.6,3.2,353.9,0.38,24.2,29.3,"10:31:12",1
"17/08/29","10:50",0.0,33.3,58.4,1005.7,256.2,0.8,4.2,200.0,0.43,24.1,29.5,"10:48:32",1
"17/08/29","11:00",0.0,32.6,60.0,1006.2,213.8,1.2,3.4,231.7,0.36,23.9,29.7,"10:57:52",1
"17/08/29","11:10",0.0,33.2,57.2,1005.7,219.0,2.1,4.7,229.0,0.54,23.6,29.9,"11:02:32",1
"17/08/29","11:20",0.0,33.6,56.6,1005.2,220.0,2.1,4.0,220.5,0.53,23.8,30.1,"11:19:12",1
"17/08/29","11:30",0.0,33.4,57.4,1005.5,214.7,1.8,4.9,190.7,0.47,23.9,30.4,"11:23:12",1
"17/08/29","11:40",0.0,33.5,57.7,1005.2,215.1,2.0,3.9,222.8,0.50,24.1,30.7,"11:31:20",1
"17/08/29","11:50",0.0,34.3,54.3,1005.7,211.4,1.0,2.5,218.0,0.50,23.8,30.8,"11:47:28",1
"17/08/29","12:00",0.0,33.2,59.5,1005.2,334.3,1.6,5.1,345.5,0.26,24.3,30.7,"11:52:48",1
"17/08/29","12:10",0.0,34.7,53.5,1005.2,218.2,1.0,3.7,220.5,0.53,23.9,31.2,"12:02:00",1
"17/08/29","12:20",0.0,33.0,59.5,1005.2,231.5,1.3,3.3,225.7,0.17,24.1,31.1,"12:15:28",1
"17/08/29","12:30",0.0,34.2,55.6,1005.2,274.4,1.0,3.1,339.1,0.43,24.1,31.1,"12:22:16",1
"17/08/29","12:40",0.0,32.8,56.3,1004.8,301.2,1.1,2.9,18.7,0.20,23.0,31.2,"12:30:02",1
"17/08/29","12:50",0.0,33.4,56.5,1004.3,286.6,0.8,2.8,357.4,0.28,23.6,31.0,"12:40:16",1
"17/08/29","13:00",0.0,33.6,54.4,1004.5,248.2,1.1,2.9,348.5,0.34,23.2,31.2,"12:50:32",1
"17/08/29","13:10",0.0,33.5,55.2,1004.3,197.3,1.2,2.7,226.3,0.30,23.3,31.2,"13:04:16",1
"17/08/29","13:20",0.0,34.1,52.8,1004.3,278.9,0.8,2.7,321.3,0.39,23.1,31.4,"13:18:16",1
"17/08/29","13:30",0.0,34.5,53.1,1004.8,218.1,1.5,4.5,214.1,0.46,23.6,31.5,"13:29:52",1
"17/08/29","13:40",0.0,34.2,52.5,1004.8,225.3,1.7,3.7,228.3,0.43,23.1,31.6,"13:30:32",1
"17/08/29","13:50",0.0,33.3,54.7,1004.3,254.8,0.8,2.5,198.4,0.18,23.0,31.6,"13:40:08",1
"17/08/29","14:00",0.0,33.7,56.1,1004.1,250.1,1.2,3.2,343.2,0.32,23.8,31.5,"13:52:56",1
"17/08/29","14:10",0.0,34.6,53.5,1004.1,246.6,0.8,2.7,196.9,0.37,23.8,31.8,"14:08:24",1
"17/08/29","14:20",0.0,34.5,54.7,1004.3,254.1,1.2,3.4,227.2,0.40,24.1,31.9,"14:14:16",1
"17/08/29","14:30",0.0,33.8,57.8,1003.8,233.2,1.3,4.1,205.9,0.22,24.4,31.5,"14:23:12",1
"17/08/29","14:40",0.0,33.9,55.2,1003.6,216.9,2.0,4.9,197.4,0.31,23.7,31.7,"14:38:16",1
"17/08/29","14:50",0.0,33.1,57.4,1003.4,223.4,1.6,3.7,221.2,0.15,23.6,31.6,"14:40:02",1
"17/08/29","15:00",0.0,33.2,56.5,1003.4,216.8,1.2,4.4,225.6,0.18,23.4,31.3,"14:57:04",1
"17/08/29","15:10",0.0,32.7,58.4,1002.9,239.7,0.7,3.7,182.1,0.09,23.5,31.5,"15:09:52",1
"17/08/29","15:20",0.0,32.8,59.6,1002.6,196.5,2.1,3.6,230.8,0.14,23.9,31.1,"15:10:32",1
"17/08/29","15:30",0.0,32.7,59.4,1002.9,233.6,1.5,4.0,220.5,0.12,23.8,31.2,"15:25:44",1
"17/08/29","15:40",0.0,32.5,60.3,1002.4,257.0,0.7,2.2,222.5,0.10,23.9,31.2,"15:38:48",1
"17/08/29","15:50",0.0,32.4,61.0,1002.4,238.6,0.8,2.1,221.3,0.10,24.0,30.9,"15:40:32",1
"17/08/29","16:00",0.0,32.6,60.0,1002.6,238.3,1.0,2.7,228.3,0.13,23.9,31.1,"15:51:04",1
"17/08/29","16:10",0.0,32.8,58.5,1002.4,216.3,1.7,3.9,186.8,0.11,23.6,30.7,"16:01:20",1
"17/08/29","16:20",0.0,32.6,58.4,1001.9,210.1,2.0,3.5,225.4,0.07,23.4,30.8,"16:15:28",1
"17/08/29","16:30",0.0,32.6,59.0,1002.4,213.0,1.5,3.4,214.2,0.08,23.6,30.7,"16:22:24",1
"17/08/29","16:40",0.0,32.2,59.3,1002.9,239.1,1.3,3.2,212.6,0.06,23.3,30.5,"16:39:12",1
"17/08/29","16:50",0.0,32.4,60.2,1002.2,241.7,1.2,3.2,233.1,0.09,23.7,30.4,"16:48:08",1
"17/08/29","17:00",0.0,32.7,59.2,1001.9,277.0,0.8,1.9,231.4,0.10,23.7,30.4,"16:51:12",1
"17/08/29","17:10",0.0,32.5,60.3,1002.2,233.3,0.7,2.4,230.2,0.08,23.9,30.4,"17:06:48",1
"17/08/29","17:20",0.0,32.2,60.1,1002.2,292.0,0.7,1.9,310.0,0.05,23.5,30.4,"17:19:36",1
"17/08/29","17:30",0.0,31.8,61.7,1001.7,274.1,0.8,1.9,241.9,0.03,23.6,30.1,"17:27:28",1
"17/08/29","17:40",0.0,31.6,62.5,1002.2,277.8,0.7,1.7,234.8,0.01,23.6,30.2,"17:38:48",1
"17/08/29","17:50",0.0,31.2,63.6,1001.5,310.6,0.5,1.4,346.7,0.00,23.5,30.1,"17:49:04",1
"17/08/29","18:00",0.0,30.9,67.2,1001.7,339.0,0.7,1.7,355.7,0.00,24.1,29.9,"17:51:44",1
"17/08/29","18:10",0.0,30.3,69.7,1001.2,358.6,0.8,1.7,344.2,0.00,24.2,29.7,"18:01:36",1
"17/08/29","18:20",0.0,29.7,71.7,1001.5,22.7,0.3,1.1,343.0,0.00,24.1,29.5,"18:10:48",1
"17/08/29","18:30",0.0,29.4,73.2,1001.0,32.2,0.6,1.6,24.1,0.00,24.1,29.5,"18:23:12",1
"17/08/29","18:40",0.0,29.0,74.9,1000.8,29.7,0.5,1.3,343.1,0.00,24.1,29.3,"18:36:08",1
"17/08/29","18:50",0.0,28.5,76.8,1001.2,351.7,0.8,2.0,343.4,0.00,24.1,29.2,"18:49:52",1
"17/08/29","19:00",0.0,28.3,77.7,1001.7,329.1,1.1,2.0,317.3,0.00,24.1,29.2,"18:57:44",1
"17/08/29","19:10",0.0,28.1,78.0,1001.9,273.5,0.6,1.3,250.3,0.00,23.9,29.2,"19:05:04",1
"17/08/29","19:20",0.0,28.0,78.6,1002.2,319.2,0.3,1.3,303.2,0.00,24.0,29.0,"19:12:32",1
"17/08/29","19:30",0.0,27.7,79.8,1002.2,324.5,0.8,1.6,322.9,0.00,23.9,28.8,"19:22:24",1
"17/08/29","19:40",0.0,27.5,80.4,1002.6,294.9,0.8,2.4,320.0,0.00,23.9,28.6,"19:32:48",1
"17/08/29","19:50",0.0,27.4,80.5,1002.4,297.1,0.7,1.7,339.9,0.00,23.8,28.6,"19:43:36",1
"17/08/29","20:00",0.0,27.3,80.8,1002.4,320.1,1.0,2.2,335.9,0.00,23.8,28.5,"19:57:28",1
"17/08/29","20:10",0.0,27.3,81.1,1002.4,338.4,1.2,2.2,332.6,0.00,23.8,28.6,"20:08:00",1
"17/08/29","20:20",0.0,27.1,81.6,1002.6,337.3,1.1,1.7,319.4,0.00,23.7,28.4,"20:14:08",1
"17/08/29","20:30",0.0,27.0,81.8,1002.6,335.1,1.1,2.4,338.0,0.00,23.7,28.4,"20:24:24",1
"17/08/29","20:40",0.0,27.0,81.7,1002.4,331.3,0.8,2.1,334.6,0.00,23.6,28.3,"20:31:28",1
"17/08/29","20:50",0.0,27.0,81.9,1002.9,337.3,1.3,2.2,346.0,0.00,23.7,28.1,"20:44:32",1
"17/08/29","21:00",0.0,26.9,81.7,1003.1,321.8,0.8,1.9,308.5,0.00,23.5,28.3,"20:59:36",1
"17/08/29","21:10",0.0,27.0,81.6,1003.1,326.3,1.2,2.7,337.9,0.00,23.6,28.2,"21:01:20",1
"17/08/29","21:20",0.0,27.1,81.4,1002.9,293.4,0.8,1.4,288.1,0.00,23.7,27.8,"21:14:24",1
"17/08/29","21:30",0.0,27.4,80.6,1003.1,317.0,1.3,4.0,334.0,0.00,23.8,28.0,"21:27:12",1
"17/08/29","21:40",0.0,27.7,79.6,1003.4,322.3,1.6,3.4,332.9,0.00,23.9,27.9,"21:32:56",1
"17/08/29","21:50",0.0,27.7,79.2,1002.9,318.4,1.5,3.1,330.6,0.00,23.8,28.0,"21:44:16",1
"17/08/29","22:00",0.0,27.6,79.5,1002.9,328.1,1.5,2.6,325.4,0.00,23.8,27.7,"21:51:12",1
"17/08/29","22:10",0.0,27.6,79.4,1003.4,312.8,1.5,3.3,330.5,0.00,23.8,27.8,"22:07:20",1
"17/08/29","22:20",0.0,27.5,79.8,1003.1,333.3,1.3,2.7,320.1,0.00,23.7,27.6,"22:19:20",1
"17/08/29","22:30",0.0,27.4,80.0,1003.1,333.1,1.5,2.5,334.0,0.00,23.7,27.7,"22:25:36",1
"17/08/29","22:40",0.0,27.4,80.1,1003.1,321.2,1.5,2.7,344.2,0.00,23.7,27.6,"22:32:16",1
"17/08/29","22:50",0.0,27.4,80.2,1003.1,289.8,0.8,2.4,251.1,0.00,23.7,27.7,"22:46:56",1
"17/08/29","23:00",0.0,27.3,80.5,1003.1,292.6,0.7,1.6,319.0,0.00,23.7,27.7,"22:53:12",1
"17/08/29","23:10",0.0,27.3,80.9,1003.4,309.1,1.0,1.7,354.4,0.00,23.8,27.5,"23:01:52",1
"17/08/29","23:20",0.0,27.2,81.5,1003.4,295.0,0.6,1.7,306.6,0.00,23.8,27.7,"23:11:52",1
"17/08/29","23:30",0.0,27.0,82.2,1003.1,297.2,0.7,1.8,341.6,0.00,23.7,27.6,"23:21:52",1
"17/08/29","23:40",0.0,27.0,82.9,1003.4,302.2,0.7,1.6,334.7,0.00,23.9,27.4,"23:30:24",1
"17/08/29","23:50",0.0,26.8,83.3,1003.1,312.4,1.0,2.5,340.2,0.00,23.8,27.5,"23:49:12",1
"17/08/29","24:00",0.0,26.7,83.7,1003.4,305.5,1.1,2.6,330.1,0.00,23.8,27.5,"23:55:12",1
